Almeria, Spain

11:59 AM CET en Noviembre 24, 2017 (GMT +0100)
Almeria

Tiempo Historia de LEAM - Noviembre, 2017

Change the Weather History Date:

Martes, Noviembre 14, 2017

  Actual Average Record
Temperature  
Temperatura media 57 ° F -  
Temperatura máxima 66 ° F 62 ° F 75 ° F (2011)
Temperatura mínima 48 ° F 50 ° F 46 ° F (2005)
Degree Days  
Grados día de calefacción 8    
Growing Degree Days 7 (Base 50)    
Moisture  
Punto de rocío 37 ° F    
Average Humidity 44    
Maximum Humidity 62    
Minimum Humidity 20    
Precipitación  
Precipitación 0.00 pul 0.03 pul - ()
Presión al nivel del mar  
Presión al nivel del mar 30.05 pul    
Viento  
Velocidad del viento 5 mph ()    
Velocidad máxima del viento 12 mph    
Max Gust Speed -    
Visibilidad 6.2 Millas    
Eventos      
Averages and records for this station are not official NWS values.
T = Trace of Precipitation, MM = Missing Value Source: Averaged Metar Reports

Daily Weather History Graph

Daily Weather History Graph

Search for Another Location

Airport or City:

Trip Planner

Search our weather history database for the weather conditions in past years. The results will help you decide how hot, cold, wet, or windy it might be!

Date:

Astronomía

Nov. 14, 2017 Salida Puesta
Hora real 7:46 AM CET 6:00 PM CET
Crepúsculo civil 7:19 AM CET 6:28 PM CET
Crepúsculo náutico 6:47 AM CET 6:59 PM CET
Crepúsculo astronómico 6:17 AM CET 7:30 PM CET
Luna 3:40 AM CET (11/14) 4:10 PM CET (11/14)
Horas de luz 11h 09m
Horas de luz
10h 14m
Creciente menguante, 15% of the Moon is Illuminated
Nov 14
Creciente menguante
Nov 18
Nueva
Nov 26
Cuarto creciente
Dic 3
Luna llena
Dic 10
Cuarto menguante

Hourly Weather History & Observations

Hora (CET) Temp. Punto de rocío Humedad Presión Visibilidad Wind Dir Velocidad del viento Velocidad de ráfagas Precip Eventos Condiciones
12:00 AM 59 ° F 42 ° F 42% 30.03 pul - Norte 8.1 mph - -  
12:00 AM 59.0 ° F 42.8 ° F 55% 30.01 pul 6.2 mi Norte 6.9 mph - N/A   Desconocido
12:30 AM 59.0 ° F 37.4 ° F 45% 30.01 pul 6.2 mi NNE 4.6 mph - N/A   Desconocido
1:00 AM 56 ° F 37 ° F 37% 30.02 pul - NNE 4.6 mph - -  
1:00 AM 57.2 ° F 37.4 ° F 48% 30.01 pul 6.2 mi NNE 3.5 mph - N/A   Desconocido
1:30 AM 59.0 ° F 33.8 ° F 39% 30.01 pul 6.2 mi NE 6.9 mph - N/A   Desconocido
2:00 AM 57 ° F 34 ° F 30% 30.02 pul - NE 8.1 mph - -  
2:00 AM 57.2 ° F 33.8 ° F 41% 30.01 pul 6.2 mi NE 8.1 mph - N/A   Desconocido
2:30 AM 57.2 ° F 32.0 ° F 38% 30.01 pul 6.2 mi NNE 5.8 mph - N/A   Desconocido
3:00 AM 54 ° F 33 ° F 33% 30.03 pul - Norte 4.6 mph - -  
3:00 AM 53.6 ° F 33.8 ° F 47% 30.01 pul 6.2 mi Norte 3.5 mph - N/A   Desconocido
3:30 AM 51.8 ° F 35.6 ° F 54% 30.01 pul 6.2 mi NNO 3.5 mph - N/A   Desconocido
4:00 AM 51 ° F 36 ° F 44% 30.02 pul - NNO 5.8 mph - -  
4:00 AM 51.8 ° F 35.6 ° F 54% 30.01 pul 6.2 mi NNO 5.8 mph - N/A   Desconocido
4:30 AM 51.8 ° F 35.6 ° F 54% 30.01 pul 6.2 mi Norte 3.5 mph - N/A   Desconocido
5:00 AM 52 ° F 33 ° F 36% 30.02 pul - Norte 4.6 mph - -  
5:00 AM 51.8 ° F 33.8 ° F 50% 30.01 pul - NNE 3.5 mph - N/A   Despejado
5:30 AM 50.0 ° F 33.8 ° F 54% 30.01 pul - Norte 2.3 mph - N/A   Despejado
6:00 AM 49 ° F 36 ° F 49% 30.02 pul - Norte 2.3 mph - -  
6:00 AM 50.0 ° F 35.6 ° F 58% 30.01 pul 6.2 mi Norte 2.3 mph - N/A   Parcialmente nublado
6:30 AM 50.0 ° F 35.6 ° F 58% 30.01 pul 6.2 mi Sin viento Sin viento - N/A   Nubes dispersas
7:00 AM 51 ° F 36 ° F 46% 30.04 pul 25 mi Sin viento Sin viento - -   Parcialmente nublado
7:00 AM 50.0 ° F 35.6 ° F 58% 30.01 pul 6.2 mi Sin viento Sin viento - N/A   Nubes dispersas
7:30 AM 53.6 ° F 32.0 ° F 44% 30.04 pul 6.2 mi NNO 8.1 mph - N/A   Nubes dispersas
8:00 AM 54 ° F 31 ° F 30% 30.05 pul - NNO 10.4 mph - -  
8:00 AM 53.6 ° F 32.0 ° F 44% 30.04 pul 6.2 mi NNO 9.2 mph - N/A   Nubes dispersas
8:30 AM 53.6 ° F 32.0 ° F 44% 30.04 pul 6.2 mi NNO 11.5 mph - N/A   Nubes dispersas
9:00 AM 54 ° F 31 ° F 30% 30.07 pul - NNO 10.4 mph - -  
9:00 AM 53.6 ° F 32.0 ° F 44% 30.06 pul 6.2 mi NNO 10.4 mph - N/A   Parcialmente nublado
9:30 AM 57.2 ° F 32.0 ° F 38% 30.06 pul 6.2 mi Norte 6.9 mph - N/A   Parcialmente nublado
10:00 AM 58 ° F 32 ° F 26% 30.08 pul 31 mi Norte 5.8 mph - -   Parcialmente nublado
10:00 AM 57.2 ° F 32.0 ° F 38% 30.06 pul 6.2 mi Norte 4.6 mph - N/A   Nubes dispersas
10:30 AM 60.8 ° F 35.6 ° F 39% 30.06 pul 6.2 mi Variable 1.2 mph - N/A   Nubes dispersas
11:00 AM 63 ° F 33 ° F 20% 30.09 pul - ESE 2.3 mph - -  
11:00 AM 62.6 ° F 32.0 ° F 32% 30.06 pul 6.2 mi Variable 2.3 mph - N/A   Nubes dispersas
11:30 AM 62.6 ° F 33.8 ° F 34% 30.06 pul 6.2 mi Variable 1.2 mph - N/A   Nubes dispersas
12:00 PM 65 ° F 34 ° F 21% 30.08 pul - Sur 3.5 mph - -  
12:00 PM 62.6 ° F 32.0 ° F 32% 30.06 pul 6.2 mi Sur 3.5 mph - N/A   Nubes dispersas
12:30 PM 62.6 ° F 33.8 ° F 34% 30.06 pul 6.2 mi Sur 4.6 mph - N/A   Parcialmente nublado
1:00 PM 62.6 ° F 33.8 ° F 34% 30.06 pul 6.2 mi SSO 4.6 mph - N/A   Parcialmente nublado
1:30 PM 62.6 ° F 35.6 ° F 37% 30.04 pul 6.2 mi SSO 5.8 mph - N/A   Parcialmente nublado
2:00 PM 65 ° F 40 ° F 28% 30.05 pul - SSO 5.8 mph - -  
2:00 PM 64.4 ° F 39.2 ° F 40% 30.04 pul 6.2 mi SSO 5.8 mph - N/A   Parcialmente nublado
2:30 PM 64.4 ° F 41.0 ° F 42% 30.04 pul 6.2 mi SSO 4.6 mph - N/A   Parcialmente nublado
3:00 PM 66 ° F 43 ° F 32% 30.04 pul - SSO 4.6 mph - -  
3:00 PM 64.4 ° F 42.8 ° F 45% 30.04 pul 6.2 mi SSO 4.6 mph - N/A   Parcialmente nublado
3:30 PM 64.4 ° F 42.8 ° F 45% 30.04 pul 6.2 mi Sur 3.5 mph - N/A   Parcialmente nublado
4:00 PM 66 ° F 44 ° F 33% 30.04 pul 31 mi SSE 4.6 mph - -   Nubes dispersas
4:00 PM 64.4 ° F 44.6 ° F 49% 30.04 pul 6.2 mi Variable 2.3 mph - N/A   Parcialmente nublado
4:30 PM 64.4 ° F 44.6 ° F 49% 30.04 pul 6.2 mi SSE 5.8 mph - N/A   Parcialmente nublado
5:00 PM 65 ° F 44 ° F 35% 30.05 pul - SE 4.6 mph - -  
5:00 PM 64.4 ° F 44.6 ° F 49% 30.04 pul - SSE 4.6 mph - N/A   Despejado
5:30 PM 62.6 ° F 42.8 ° F 48% 30.04 pul - Este 8.1 mph - N/A   Despejado
6:00 PM 61 ° F 43 ° F 40% 30.06 pul - Este 8.1 mph - -  
6:00 PM 60.8 ° F 42.8 ° F 52% 30.04 pul - Este 6.9 mph - N/A   Despejado
6:30 PM 59.0 ° F 41.0 ° F 51% 30.06 pul - ENE 6.9 mph - N/A   Despejado
7:00 PM 59.0 ° F 41.0 ° F 51% 30.06 pul - NE 5.8 mph - N/A   Despejado
7:30 PM 57.2 ° F 41.0 ° F 55% 30.06 pul - NE 6.9 mph - N/A   Despejado
8:00 PM 57.2 ° F 39.2 ° F 51% 30.09 pul - NNE 5.8 mph - N/A   Despejado
8:30 PM 57.2 ° F 39.2 ° F 51% 30.09 pul - NNE 8.1 mph - N/A   Despejado
9:00 PM 57 ° F 40 ° F 42% 30.11 pul - NNE 9.2 mph - -  
9:00 PM 57.2 ° F 41.0 ° F 55% 30.09 pul - NNE 8.1 mph - N/A   Despejado
9:30 PM 57.2 ° F 41.0 ° F 55% 30.09 pul - Norte 5.8 mph - N/A   Despejado
10:00 PM 55.4 ° F 39.2 ° F 54% 30.12 pul - NNO 8.1 mph - N/A   Despejado
10:30 PM 55.4 ° F 39.2 ° F 54% 30.12 pul - NNO 8.1 mph - N/A   Despejado
11:00 PM 54 ° F 40 ° F 48% 30.14 pul - NNO 9.2 mph - -  
11:00 PM 53.6 ° F 41.0 ° F 62% 30.12 pul 6.2 mi NNO 9.2 mph - N/A   Desconocido
11:30 PM 53.6 ° F 39.2 ° F 58% 30.12 pul 6.2 mi Norte 11.5 mph - N/A   Desconocido